CW7104 Weather Reports


Display with metric or nautical units.
time (UTC)temp
F
wind
direction
speed
MPH
gust
MPH
rain 1hr
in
rain 24hr
in
rain mn
in
humidity
%
barometer
mb
20260905144404 89 262 0.0 0.0 0.00 0.00 0.00 62 1013.3
20260905143404 89 265 1.0 5.0 0.00 0.00 0.00 61 1013.4
20260905142904 88 263 0.0 0.0 0.00 0.00 0.00 63 1013.5
20260905142404 87 244 0.0 0.0 0.00 0.00 0.00 65 1013.5
20260905141904 87 242 0.0 1.0 0.00 0.00 0.00 67 1013.5
20260905141404 86 244 0.0 3.0 0.00 0.00 0.00 68 1013.6
20260905140904 85 224 0.0 0.0 0.00 0.00 0.00 71 1013.6
20260905135404 83 224 0.0 0.0 0.00 0.00 0.00 76 1013.6
20260905134904 82 223 0.0 0.0 0.00 0.00 0.00 78 1013.6
20260905134404 82 224 0.0 0.0 0.00 0.00 0.00 79 1013.6
20260905133904 81 225 0.0 0.0 0.00 0.00 0.00 80 1013.6
20260905133403 80 225 0.0 0.0 0.00 0.00 0.00 81 1013.7
20260905132904 79 225 0.0 0.0 0.00 0.00 0.00 82 1013.7
20260905132404 79 225 0.0 0.0 0.00 0.00 0.00 82 1013.7
20260905131904 78 225 0.0 0.0 0.00 0.00 0.00 82 1013.8
20260905131404 78 225 0.0 0.0 0.00 0.00 0.00 82 1013.8
20260905130903 77 225 0.0 0.0 0.00 0.00 0.00 82 1013.8
20260905130403 77 225 0.0 0.0 0.00 0.00 0.00 82 1013.7
20260905125904 76 225 0.0 0.0 0.00 0.00 0.00 82 1013.8
20260905125403 76 225 0.0 0.0 0.00 0.00 0.00 82 1013.8
20260905124904 75 225 0.0 0.0 0.00 0.00 0.00 82 1013.9
20260905124404 75 225 0.0 0.0 0.00 0.00 0.00 82 1013.8
20260905123904 75 225 0.0 0.0 0.00 0.00 0.00 82 1013.8
20260905123403 74 225 0.0 0.0 0.00 0.00 0.00 82 1013.7
20260905122404 74 225 0.0 0.0 0.00 0.00 0.00 82 1013.8
20260905121904 74 225 0.0 0.0 0.00 0.00 0.00 82 1013.8
20260905121404 74 225 0.0 0.0 0.00 0.00 0.00 82 1013.7
20260905120904 74 225 0.0 0.0 0.00 0.00 0.00 82 1013.6
20260905120404 74 225 0.0 0.0 0.00 0.00 0.00 82 1013.5
20260905115903 73 225 0.0 0.0 0.00 0.00 0.00 82 1013.5
20260905115404 73 225 0.0 0.0 0.00 0.00 0.00 81 1013.4
20260905114904 73 225 0.0 0.0 0.00 0.00 0.00 81 1013.4
20260905114403 73 225 0.0 0.0 0.00 0.00 0.00 81 1013.4
20260905113404 73 225 0.0 0.0 0.00 0.00 0.00 82 1013.3
20260905112903 73 225 0.0 0.0 0.00 0.00 0.00 82 1013.2
20260905112403 73 225 0.0 0.0 0.00 0.00 0.00 81 1013.2
20260905111404 74 225 0.0 0.0 0.00 0.00 0.00 81 1013.1
20260905110904 74 225 0.0 0.0 0.00 0.00 0.00 81 1013.0
20260905110403 74 225 0.0 0.0 0.00 0.00 0.00 81 1013.0
20260905105903 74 225 0.0 0.0 0.00 0.00 0.00 81 1013.0
20260905104903 74 225 0.0 0.0 0.00 0.00 0.00 81 1013.0
20260905103404 74 225 0.0 0.0 0.00 0.00 0.00 81 1012.9
20260905102903 74 225 0.0 0.0 0.00 0.00 0.00 81 1012.8
20260905100904 74 225 0.0 0.0 0.00 0.00 0.00 81 1012.7
20260905100404 74 225 0.0 0.0 0.00 0.00 0.00 81 1012.7
20260905095903 74 225 0.0 0.0 0.00 0.00 0.00 80 1012.7
20260905095403 74 225 0.0 0.0 0.00 0.00 0.00 80 1012.5
20260905094403 75 225 0.0 0.0 0.00 0.00 0.00 80 1012.5
20260905093403 75 225 0.0 0.0 0.00 0.00 0.00 80 1012.5
20260905092903 75 225 0.0 0.0 0.00 0.00 0.00 80 1012.5
20260905092404 75 225 0.0 0.0 0.00 0.00 0.00 80 1012.5
20260905091903 75 225 0.0 0.0 0.00 0.00 0.00 80 1012.4
20260905091404 75 225 0.0 0.0 0.00 0.00 0.00 80 1012.4
20260905090905 75 225 0.0 0.0 0.00 0.00 0.00 80 1012.4
20260905090405 75 225 0.0 0.0 0.00 0.00 0.00 79 1012.4
20260905085905 75 225 0.0 0.0 0.00 0.00 0.00 80 1012.3
20260905085406 75 225 0.0 0.0 0.00 0.00 0.00 80 1012.3
20260905084905 75 225 0.0 0.0 0.00 0.00 0.00 79 1012.3
20260905083405 76 225 0.0 0.0 0.00 0.00 0.00 79 1012.4
20260905082905 76 225 0.0 0.0 0.00 0.00 0.00 79 1012.4
20260905082405 76 225 0.0 0.0 0.00 0.00 0.00 79 1012.4
20260905081905 76 225 0.0 0.0 0.00 0.00 0.00 79 1012.5
20260905080905 76 225 0.0 0.0 0.00 0.00 0.00 78 1012.6
20260905080405 76 225 0.0 0.0 0.00 0.00 0.00 78 1012.5
20260905075905 76 225 0.0 0.0 0.00 0.00 0.00 78 1012.6
20260905075405 76 225 0.0 0.0 0.00 0.00 0.00 78 1012.6
20260905074905 77 225 0.0 0.0 0.00 0.00 0.00 78 1012.6
20260905074405 77 225 0.0 0.0 0.00 0.00 0.00 78 1012.5
20260905073905 77 225 0.0 0.0 0.00 0.00 0.00 78 1012.5
20260905073405 77 225 0.0 0.0 0.00 0.00 0.00 78 1012.5
20260905072906 77 225 0.0 0.0 0.00 0.00 0.00 78 1012.5
20260905072405 77 225 0.0 0.0 0.00 0.00 0.00 78 1012.6
20260905071905 78 225 0.0 0.0 0.00 0.00 0.00 77 1012.6
20260905070905 78 225 0.0 0.0 0.00 0.00 0.00 77 1012.6
20260905070405 78 225 0.0 0.0 0.00 0.00 0.00 77 1012.8
20260905065905 78 225 0.0 0.0 0.00 0.00 0.00 76 1012.7
20260905065405 78 225 0.0 0.0 0.00 0.00 0.00 76 1012.7
20260905064905 78 225 0.0 0.0 0.00 0.00 0.00 75 1012.6
20260905064405 79 225 0.0 0.0 0.00 0.00 0.00 75 1012.6
20260905063406 79 225 0.0 0.0 0.00 0.00 0.00 74 1012.7
20260905062905 79 225 0.0 0.0 0.00 0.00 0.00 74 1012.7
20260905061905 80 225 0.0 0.0 0.00 0.00 0.00 74 1012.7
20260905060906 80 225 0.0 0.0 0.00 0.00 0.00 73 1012.7
20260905060405 80 225 0.0 0.0 0.00 0.00 0.00 73 1012.7
20260905055905 80 225 0.0 0.0 0.00 0.00 0.00 73 1012.7
20260905055405 80 225 0.0 0.0 0.00 0.00 0.00 73 1012.8
20260905054905 80 225 0.0 0.0 0.00 0.00 0.00 73 1012.8
20260905054405 80 225 0.0 0.0 0.00 0.00 0.00 73 1012.9
20260905053905 80 225 0.0 0.0 0.00 0.00 0.00 73 1012.9
20260905052905 80 225 0.0 0.0 0.00 0.00 0.00 72 1013.0
20260905052405 81 225 0.0 0.0 0.00 0.00 0.00 72 1013.0
20260905051905 81 225 0.0 0.0 0.00 0.00 0.00 71 1013.0
20260905051404 81 225 0.0 0.0 0.00 0.00 0.00 71 1013.0
20260905050905 81 225 0.0 0.0 0.00 0.00 0.00 70 1013.0
20260905050405 82 225 0.0 0.0 0.00 0.00 0.00 69 1012.9
20260905045905 82 225 0.0 0.0 0.00 0.00 0.00 69 1012.9
20260905045405 82 225 0.0 0.0 0.00 0.00 0.00 69 1012.9
20260905043905 82 217 0.0 0.0 0.00 0.00 0.00 68 1012.8
20260905043405 82 217 0.0 0.0 0.00 0.00 0.00 68 1012.8
20260905042905 82 217 0.0 0.0 0.00 0.00 0.00 69 1012.7
20260905042405 82 217 0.0 0.0 0.00 0.00 0.00 69 1012.8
20260905041905 82 217 0.0 0.0 0.00 0.00 0.00 69 1012.8
20260905041405 83 217 0.0 0.0 0.00 0.00 0.00 69 1012.9
20260905040905 83 217 0.0 0.0 0.00 0.00 0.00 68 1013.0
20260905035905 85 217 0.0 0.0 0.00 0.00 0.00 67 1013.0
20260905034905 85 217 0.0 0.0 0.00 0.00 0.00 63 1013.1
20260905034404 85 218 0.0 0.0 0.00 0.00 0.00 64 1013.1
20260905033905 85 218 0.0 0.0 0.00 0.00 0.00 63 1013.1
20260905033405 86 218 0.0 0.0 0.00 0.00 0.00 62 1013.0
20260905032905 86 218 0.0 0.0 0.00 0.00 0.00 62 1013.0
20260905032405 86 218 0.0 0.0 0.00 0.00 0.00 62 1013.0
20260905031405 86 217 0.0 0.0 0.00 0.00 0.00 62 1013.2
20260905030904 86 217 0.0 0.0 0.00 0.00 0.00 62 1013.2
20260905030405 86 217 0.0 0.0 0.00 0.00 0.00 62 1013.2
20260905025905 86 218 0.0 0.0 0.00 0.00 0.00 63 1013.2
20260905025405 85 222 0.0 2.0 0.00 0.00 0.00 63 1013.2
20260905024905 85 220 0.0 0.0 0.00 0.00 0.00 64 1013.1
20260905023905 85 217 0.0 0.0 0.00 0.00 0.00 65 1013.0
20260905023405 86 217 0.0 0.0 0.00 0.00 0.00 65 1013.0
20260905022905 86 217 0.0 0.0 0.00 0.00 0.00 65 1013.0
20260905022405 86 217 0.0 0.0 0.00 0.00 0.00 65 1012.9
20260905021905 87 217 0.0 0.0 0.00 0.00 0.00 64 1012.9
20260905021404 87 217 0.0 0.0 0.00 0.00 0.00 63 1012.8
20260905020405 87 217 0.0 0.0 0.00 0.00 0.00 63 1012.9
20260905015905 87 217 0.0 0.0 0.00 0.00 0.00 63 1012.8
20260905015404 87 217 0.0 0.0 0.00 0.00 0.00 63 1012.8
20260905014905 87 217 0.0 0.0 0.00 0.00 0.00 63 1012.7
20260905014404 87 212 0.0 0.0 0.00 0.00 0.00 62 1012.7
20260905013905 88 212 0.0 0.0 0.00 0.00 0.00 62 1012.6
20260905012405 88 212 0.0 0.0 0.00 0.00 0.00 62 1012.4
20260905011905 89 212 0.0 0.0 0.00 0.00 0.00 61 1012.5
20260905011405 89 212 0.0 0.0 0.00 0.00 0.00 61 1012.4
20260905010905 89 212 0.0 0.0 0.00 0.00 0.00 60 1012.4
20260905010404 89 212 0.0 0.0 0.00 0.00 0.00 59 1012.5
20260905005904 89 212 0.0 0.0 0.00 0.00 0.00 59 1012.5
20260905005405 89 212 0.0 0.0 0.00 0.00 0.00 58 1012.5
20260905004905 90 212 0.0 0.0 0.00 0.00 0.00 57 1012.4
20260905004405 90 212 0.0 0.0 0.00 0.00 0.00 56 1012.5
20260905003404 91 212 0.0 0.0 0.00 0.00 0.00 54 1012.3
20260905002905 91 212 0.0 0.0 0.00 0.00 0.00 54 1012.3
20260905002405 92 212 0.0 0.0 0.00 0.00 0.00 53 1012.2
20260905001904 92 212 0.0 0.0 0.00 0.00 0.00 52 1012.2
20260905001404 93 212 0.0 0.0 0.00 0.00 0.00 51 1012.1
20260905000404 94 212 0.0 0.0 0.00 0.00 0.00 50 1012.2
20260904235405 95 212 0.0 0.0 0.00 0.00 0.00 50 1012.2
20260904234905 96 212 0.0 0.0 0.00 0.00 0.00 49 1012.2
20260904233905 97 212 0.0 0.0 0.00 0.00 0.00 47 1012.2
20260904233404 97 212 0.0 0.0 0.00 0.00 0.00 47 1012.0
20260904232905 97 212 0.0 0.0 0.00 0.00 0.00 46 1012.0
20260904232405 97 212 0.0 0.0 0.00 0.00 0.00 46 1012.0
20260904231904 97 212 0.0 0.0 0.00 0.00 0.00 46 1011.9
20260904231404 97 212 0.0 0.0 0.00 0.00 0.00 45 1011.9
20260904230904 97 212 0.0 0.0 0.00 0.00 0.00 45 1011.9
20260904230405 97 212 0.0 0.0 0.00 0.00 0.00 45 1011.9
20260904225904 98 213 0.0 0.0 0.00 0.00 0.00 44 1011.8
20260904225404 98 213 0.0 0.0 0.00 0.00 0.00 43 1011.8
20260904224904 98 213 0.0 0.0 0.00 0.00 0.00 43 1011.8
20260904224405 99 213 0.0 0.0 0.00 0.00 0.00 42 1011.8
20260904223905 99 213 0.0 0.0 0.00 0.00 0.00 42 1011.7
20260904223404 100 216 0.0 0.0 0.00 0.00 0.00 42 1011.7
20260904222404 102 217 0.0 0.0 0.00 0.00 0.00 40 1011.6
20260904221905 102 217 0.0 0.0 0.00 0.00 0.00 39 1011.7
20260904221405 102 240 0.0 0.0 0.00 0.00 0.00 39 1011.7
20260904220904 101 240 0.0 0.0 0.00 0.00 0.00 41 1011.8
20260904220405 101 240 0.0 0.0 0.00 0.00 0.00 40 1011.8
20260904215904 100 240 0.0 0.0 0.00 0.00 0.00 40 1011.9
20260904215404 100 240 0.0 0.0 0.00 0.00 0.00 43 1011.9
20260904214905 99 240 0.0 0.0 0.00 0.00 0.00 42 1012.1
20260904214404 100 240 0.0 0.0 0.00 0.00 0.00 42 1012.2
20260904213904 101 240 0.0 0.0 0.00 0.00 0.00 40 1012.2
20260904213405 102 241 0.0 0.0 0.00 0.00 0.00 39 1012.3
20260904212905 102 241 0.0 0.0 0.00 0.00 0.00 38 1012.3
20260904211905 102 222 0.0 0.0 0.00 0.00 0.00 38 1012.4
20260904211405 102 221 0.0 0.0 0.00 0.00 0.00 38 1012.5
20260904210904 101 221 0.0 0.0 0.00 0.00 0.00 43 1012.5
20260904210405 100 221 0.0 0.0 0.00 0.00 0.00 43 1012.6
20260904205404 98 222 0.0 0.0 0.00 0.00 0.00 45 1012.8
20260904204905 98 222 0.0 0.0 0.00 0.00 0.00 44 1012.8
20260904203904 100 197 0.0 1.0 0.00 0.00 0.00 42 1012.8
20260904203404 101 229 0.0 8.0 0.00 0.00 0.00 41 1012.9
20260904202904 100 176 0.0 5.0 0.00 0.00 0.00 42 1012.9
20260904202404 100 211 0.0 0.0 0.00 0.00 0.00 42 1013.0
20260904201904 100 157 0.0 0.0 0.00 0.00 0.00 41 1013.0
20260904201405 101 157 0.0 0.0 0.00 0.00 0.00 40 1013.0
20260904200905 102 177 0.0 7.0 0.00 0.00 0.00 39 1013.1
20260904200405 103 147 0.0 0.0 0.00 0.00 0.00 40 1013.1
20260904195904 103 159 0.0 0.0 0.00 0.00 0.00 40 1013.2
20260904195405 103 213 0.0 0.0 0.00 0.00 0.00 39 1013.4
20260904194904 103 185 0.0 1.0 0.00 0.00 0.00 39 1013.4
20260904194404 103 203 0.0 1.0 0.00 0.00 0.00 39 1013.5
20260904193905 103 203 0.0 0.0 0.00 0.00 0.00 39 1013.6
20260904193404 102 181 0.0 0.0 0.00 0.00 0.00 39 1013.7
20260904192904 102 211 1.0 7.0 0.00 0.00 0.00 41 1013.7
20260904192404 101 195 0.0 0.0 0.00 0.00 0.00 42 1013.8
20260904191905 101 151 0.0 2.0 0.00 0.00 0.00 43 1013.9
20260904191404 100 199 1.0 6.0 0.00 0.00 0.00 43 1014.0
20260904190904 99 225 0.0 1.0 0.00 0.00 0.00 44 1014.0
20260904190404 98 259 0.0 0.0 0.00 0.00 0.00 46 1014.1
20260904185905 99 261 0.0 0.0 0.00 0.00 0.00 42 1014.2
20260904185404 100 261 0.0 1.0 0.00 0.00 0.00 41 1014.2
20260904161404 95 267 0.0 0.0 0.00 0.00 0.00 53 1015.6
20260904160905 95 267 0.0 0.0 0.00 0.00 0.00 54 1015.6
20260904155904 95 266 1.0 5.0 0.00 0.00 0.00 53 1015.6
20260904155404 95 224 0.0 6.0 0.00 0.00 0.00 53 1015.5
20260904154404 94 226 0.0 0.0 0.00 0.00 0.00 54 1015.6
20260904153904 94 209 0.0 0.0 0.00 0.00 0.00 54 1015.6
20260904153404 94 283 0.0 0.0 0.00 0.00 0.00 55 1015.5
20260904152904 94 229 0.0 0.0 0.00 0.00 0.00 55 1015.6
20260904151904 93 185 0.0 0.0 0.00 0.00 0.00 55 1015.7
20260904151404 92 235 0.0 0.0 0.00 0.00 0.00 56 1015.7
20260904150904 92 217 0.0 0.0 0.00 0.00 0.00 57 1015.6
20260904145404 89 250 0.0 0.0 0.00 0.00 0.00 62 1015.7